sat.trackr.live / text

‹ back to catalog

STARLINK-33682

NORAD 63433 · 2025-069A

PAYLOAD ACTIVE UNKNOWN

§ Identity

Operator
Country
US
Launch date
2025-04-04
Launch site
AFWTR
Launch vehicle
Mass (kg)
RCS (m²)

Purposes: comms

External: N2YO · Heavens-Above · Gunter

§ Orbital elements

Epoch: 2026-05-25T00:12:27.621792Z

Period
93.37 min
Inclination
53.1589°
Eccentricity
0.0001367
Mean motion
15.42178709 rev/d
Perigee alt
438.7 km
Apogee alt
440.6 km
Semi-major
6,817.8 km
B*
6.4726e-4
RAAN
145.5653°
Arg perigee
80.4748°
Mean anomaly
279.6412°
Rev number
6,512

§ Raw data

STARLINK-336821 63433U 25069A   26145.00865303  .00027874  00000+0  64726-3 0  99992 63433  53.1589 145.5653 0001367  80.4748 279.6412 15.42178709 65128

JSON: /api/v1/satellites/63433 · /tle

For live sub-satellite position, see the globe view (requires WebGL).

§ Visibility from observer

Set your observer location to see the next 7 days of passes ≥ 10°. The values pass through the URL so the page stays shareable.

No JS? Fill the form by hand. The geolocation button needs JavaScript.